WESTFORD NEEDLES *, 3267

Orbit data source: Space-Track

WESTFORD NEEDLES *, 3267 is space debris in LEO originally from a launch on Thu, 09 May 1963 UTC launched from the Air Force Western Test Range (AFWTR). Debris objects in space refer to the collection of defunct objects orbiting the Earth. Examples of debris include non-operational satellites, rocket bodies, and fragments generated from explosions, collisions, or faulty payload assembly.

Loading next visibility...
Identifier
3267, 1963-014CF
Orbit
LEO
Country
Flag of USUS
Related business
Manufacturer
RCA Victor
Mission
Spacecraft
Bus & Motor
Unknown
Mass
Unknown
Launch date (UTC)
1963-05-09 (63 years ago)
Launch vehicle
Unknown
Launch site
Air Force Western Test Range (AFWTR)
Object type
Payload
Rocket body
Debris
Shape & HBR
Unknown shape, 0.1 m
Radar Cross Section
Small (<0.1 m²)

Expand to show TLE details & history
Last TLE update: 10 hours ago

TLE from 10 hours ago
0 WESTFORD NEEDLES *
1  3267U 63014CF  26124.29855647  .00000080  00000-0  54580-4 0  9997
2  3267  88.3751  85.8672 1687042 221.6313 124.3535 11.34122759537366
Epoch: 2026-05-04T07:09Z
TLE epoch observation values (Epoch: 2026-05-04T07:09:55.279Z)
Latitude
-0.00012°
Longitude
116.19711°
Altitude
2,929.743 km
Speed
6.168 km/s
True Right ascension
05h 43m 28s
True Declination
0° 00' 00"
Sunlit
Object was in daylight at epoch
Visualization orbit readout
Latitude
Unknown
Longitude
Unknown
Altitude
Unknown
Speed
Unknown
Apparent Right ascension
Unknown
Apparent Declination
Unknown
Sunlit
N/A
Visualization observer readout
Local Sidereal Time
01:27:31
Azimuth
Unknown
Elevation
Unknown
Doppler factor
Unknown
Orbital elements
Apogee altitude
3,398.536 km
Perigee altitude
575.981 km
Semi-major axis
8,365.395 km
Eccentricity
0.1687
Inclination
88.3751°
RAAN
85.8672°
Arg. of periapsis
221.6313°
True anomaly
138.46883°
Mean anomaly
124.3535°
Eccentric anomaly
131.58358°
Mean motion
2.8367 °/min
Orbital period
126.91 mins
BSTAR
0.00005458
Loading maneuver chart data...
Computing Atmospheric mass density...

Documentation

Showing up to 5 results
|